Weather History for KLHX - May, 2013

Change the Weather History Date:

Saturday, May 25, 2013

  Actual Average Record
Temperature  
Mean Temperature 82 °F 66 °F  
Max Temperature 96 °F 81 °F 96 °F (2013)
Min Temperature 68 °F 51 °F 34 °F (2002)
Degree Days  
Heating Degree Days 0 2  
Month to date heating degree days 143 121  
Since 1 July heating degree days 5074 5244  
Cooling Degree Days 17 3  
Month to date cooling degree days 85 41  
Year to date cooling degree days 89 50  
Growing Degree Days 32 (Base 50)    
Moisture  
Dew Point 36 °F    
Average Humidity 31    
Maximum Humidity 57    
Minimum Humidity 5    
Precipitation  
Precipitation 0.00 in 0.05 in 0.53 in (1955)
Month to date precipitation 0.22 1.27  
Year to date precipitation 0.67 3.99  
Sea Level Pressure  
Sea Level Pressure 29.70 in    
Wind  
Wind Speed 16 mph (SW)    
Max Wind Speed 21 mph    
Max Gust Speed 30 mph    
Visibility 10 miles    
Events      
T = Trace of Precipitation, MM = Missing Value Source: NWS Daily Summary

Daily Weather History Graph

Daily Weather History Graph

Search for Another Location

Airport or City:

Trip Planner

Search our weather history database for the weather conditions in past years. The results will help you decide how hot, cold, wet, or windy it might be!

Date:

Astronomy

May. 25, 2013 Rise Set
Actual Time 5:36 AM MDT 8:06 PM MDT
Civil Twilight 5:05 AM MDT 8:36 PM MDT
Nautical Twilight 4:28 AM MDT 9:14 PM MDT
Astronomical Twilight 3:46 AM MDT 9:56 PM MDT
Moon 8:56 PM MDT (5/25) 6:05 AM MDT (5/25)
Length of Visible Light 15h 30m
Length of Day
14h 30m
Waxing Gibbous, 99% of the Moon is Illuminated
May 25
Waxing Gibbous
May 31
Last Quarter
Jun 8
New
Jun 16
First Quarter
Jun 23
Full

Hourly Weather History & Observations

Time (MDT) Temp. Dew Point Humidity Pressure Visibility Wind Dir Wind Speed Gust Speed Precip Events Conditions
12:53 AM 71.1 °F 39.9 °F 32% 29.77 in 10.0 mi North - - N/A   Clear
1:53 AM 69.1 °F 44.1 °F 40% 29.78 in 10.0 mi North - - N/A   Clear
2:53 AM 69.1 °F 51.1 °F 53% 29.76 in 10.0 mi North - - N/A   Clear
3:53 AM 70.0 °F 53.1 °F 55% 29.74 in 10.0 mi North - - N/A   Clear
4:53 AM 69.1 °F 52.0 °F 54% 29.76 in 10.0 mi North - - N/A   Clear
5:53 AM 68.0 °F 52.0 °F 56% 29.79 in 10.0 mi North - - N/A   Clear
6:53 AM 69.1 °F 53.1 °F 57% 29.80 in 10.0 mi North - - N/A   Clear
7:53 AM 73.9 °F 52.0 °F 46% 29.79 in 10.0 mi North - - N/A   Clear
8:53 AM 77.0 °F 52.0 °F 42% 29.79 in 10.0 mi North - - N/A   Clear
9:53 AM 82.9 °F 48.9 °F 31% 29.75 in 10.0 mi SW 19.6 mph - N/A   Clear
10:53 AM 87.1 °F 44.1 °F 22% 29.74 in 10.0 mi North - - N/A   Clear
11:53 AM 91.9 °F 36.0 °F 14% 29.73 in 10.0 mi North - - N/A   Clear
12:53 PM 93.0 °F 23.0 °F 8% 29.70 in 10.0 mi North - - N/A   Clear
1:53 PM 93.0 °F 21.9 °F 8% 29.68 in 10.0 mi North - - N/A   Clear
2:53 PM 95.0 °F 16.0 °F 6% 29.66 in 10.0 mi North - - N/A   Clear
3:53 PM 93.9 °F 14.0 °F 5% 29.64 in 10.0 mi North - - N/A   Clear
4:53 PM 95.0 °F 15.1 °F 5% 29.61 in 10.0 mi North - - N/A   Clear
5:53 PM 93.9 °F 12.9 °F 5% 29.60 in 10.0 mi North - - N/A   Clear
6:53 PM 91.9 °F 21.9 °F 8% 29.59 in 10.0 mi North - - N/A   Clear
7:53 PM 88.0 °F 23.0 °F 9% 29.59 in 10.0 mi North - - N/A   Clear
8:53 PM 84.9 °F 24.1 °F 11% 29.60 in 10.0 mi North - - N/A   Clear
9:53 PM 84.0 °F 33.1 °F 16% 29.61 in 10.0 mi North - - N/A   Clear
10:53 PM 80.1 °F 37.9 °F 22% 29.61 in 10.0 mi North - - N/A   Clear
11:53 PM 77.0 °F 37.9 °F 24% 29.62 in 10.0 mi North - - N/A   Clear